This demonstration page uses our WeatherBlox Daily Observations layout. Learn more.

Left ArrowRight Arrow

39.92423, -83.80882

Hourly Observations for January 9, 2021

Temp ( °F °C ) Dew Point ( °F °C ) Humidity (%) Winds ( mph kmh ) Pressure ( in mb ) Visibility ( mi km ) Precip ( " mm )
12:20 am 00:20 Cloudy 28 -2 25 -4 86 86 N 7 11 30.17 1022 10 16.0934 0 0
12:56 am 00:56 Cloudy 28 -2.2 24 -4.4 85 85 NNE 7 11 30.15 1021 10 16.0934 0 0
1:56 am 01:56 Cloudy 28 -2.2 24 -4.4 85 85 NNE 10 17 30.16 1021 10 16.0934 0 0
2:56 am 02:56 Cloudy 28 -2.2 24 -4.4 85 85 NNE 9 15 30.17 1022 10 16.0934 0 0
3:56 am 03:56 Cloudy 27 -2.8 23 -5 85 85 N 8 13 30.18 1022 10 16.0934 0 0
4:56 am 04:56 Cloudy 26 -3.3 22 -5.6 84 84 N 12 19 30.18 1022 10 16.0934 0 0
5:56 am 05:56 Cloudy 25 -3.9 21 -6.1 85 85 N 7 11 30.21 1023 10 16.0934 0 0
6:56 am 06:56 Cloudy 25 -3.9 22 -5.6 88 88 N 7 11 30.23 1024 10 16.0934 0 0
7:56 am 07:56 Cloudy 25 -3.9 22 -5.6 88 88 N 7 11 30.25 1024 10 16.0934 0 0
8:56 am 08:56 Cloudy 26 -3.3 22 -5.6 84 84 N 6 9 30.26 1025 10 16.0934 0 0
9:56 am 09:56 Cloudy 27 -2.8 22 -5.6 81 81 N 7 11 30.28 1025 10 16.0934 0 0
10:56 am 10:56 Cloudy 28 -2.2 23 -5 81 81 NNE 9 15 30.29 1026 10 16.0934 0 0
11:22 am 11:22 Partly Cloudy 30 -1 23 -5 75 75 N 8 13 30.31 1026 10 16.0934 0 0
11:54 am 11:54 Mostly Cloudy 30 -1 25 -4 80 80 NNW 8 13 30.3 1026 10 16.0934 0 0
11:56 am 11:56 Mostly Cloudy 31 -0.6 23 -5 72 72 NNW 7 11 30.28 1025 10 16.0934 0 0
12:06 pm 12:06 Partly Cloudy 30 -1 23 -5 75 75 N 7 11 30.29 1026 10 16.0934 0 0
12:56 pm 12:56 Sunny 33 0.6 23 -5 66 66 VRB 6 9 30.26 1025 10 16.0934 0 0
1:56 pm 13:56 Sunny 34 1.1 23 -5 64 64 NW 6 9 30.25 1025 10 16.0934 0 0
2:56 pm 14:56 Sunny 36 2.2 24 -4.4 62 62 WNW 6 9 30.26 1025 10 16.0934 0.01 0.254
3:56 pm 15:56 Sunny 35 1.7 23 -5 61 61 NNW 8 13 30.27 1025 10 16.0934 0 0
4:56 pm 16:56 Sunny 34 1.1 23 -5 64 64 NNW 6 9 30.28 1026 10 16.0934 0 0
5:56 pm 17:56 Clear 30 -1.1 24 -4.4 79 79 NW 5 7 30.31 1027 10 16.0934 0 0
6:56 pm 18:56 Clear 27 -2.8 23 -5 85 85 NW 5 7 30.33 1027 10 16.0934 0 0
7:56 pm 19:56 Clear 26 -3.3 23 -5 88 88 WNW 6 9 30.34 1027 10 16.0934 0 0
8:56 pm 20:56 Clear 26 -3.3 23 -5 88 88 NW 3 6 30.34 1027 10 16.0934 0 0
9:56 pm 21:56 Clear 25 -3.9 23 -5 92 92 Calm 30.33 1027 10 16.0934 0 0
10:56 pm 22:56 Clear 25 -3.9 23 -5 92 92 Calm 30.33 1027 10 16.0934 0 0
11:56 pm 23:56 Clear 23 -5 22 -5.6 96 96 WSW 3 6 30.34 1027 9 14.48406 0 0

Powered by AerisWeather